Tracking 20382 objects as of 24-Feb-2020
HD Live streaming from Space Station
objects crossing your sky now
Track the group of recently launched Starlink satellites

IRIDIUM 33 DEB

Track IRIDIUM 33 DEB now!
10-day predictions


NORAD ID: 33874
Int'l Code: 1997-051AT
Perigee: 734.9 km
Apogee: 842.6 km
Inclination: 86.3 °
Period: 100.5 minutes
Semi major axis: 7159 km
RCS: 0.1107 m2 (medium)
Launch date: September 14, 1997
Source: United States (US)
Launch site: TYURATAM MISSILE AND SPACE COMPLEX (TTMTR)

Note: This is SATELLITE DEBRIS
aabbcc
Your satellite tracking list
Your tracking list is empty




NASA's NSSDC Master Catalog

Two Line Element Set (TLE):
1 33874U 97051AT  20054.92728312 +.00000887 +00000-0 +30679-3 0  9993
2 33874 086.2916 217.5012 0075191 126.4866 025.9072 14.33032770573216
Source of the keplerian elements: AFSPC